| time (UTC) | temp F | wind direction | speed knots | gust knots | rain 1hr in | rain 24hr in | rain mn in | humidity % | barometer mb |
| 20260503223225 | 65 | 213 | 11.3 | 20.0 | 0.00 | 0.05 | 0.05 | 50 | 1008.2 |
| 20260503220225 | 65 | 204 | 9.6 | 20.0 | 0.00 | 0.05 | 0.05 | 49 | 1008.5 |
| 20260503213224 | 66 | 211 | 17.4 | 29.5 | 0.00 | 0.05 | 0.05 | 46 | 1008.9 |
| 20260503210225 | 63 | 213 | 7.0 | 28.7 | 0.00 | 0.05 | 0.05 | 47 | 1009.2 |
| 20260503203225 | 64 | 182 | 14.8 | 25.2 | 0.00 | 0.05 | 0.05 | 44 | 1009.8 |
| 20260503200224 | 63 | 160 | 20.0 | 31.3 | 0.00 | 0.05 | 0.05 | 46 | 1010.2 |
| 20260503193224 | 64 | 221 | 15.6 | 29.5 | 0.00 | 0.05 | 0.05 | 47 | 1010.4 |
| 20260503190224 | 64 | 193 | 15.6 | 29.5 | 0.00 | 0.05 | 0.05 | 49 | 1011.1 |
| 20260503183224 | 61 | 180 | 13.9 | 23.5 | 0.00 | 0.05 | 0.05 | 61 | 1011.7 |
| 20260503180224 | 54 | 157 | 8.7 | 11.3 | 0.01 | 0.05 | 0.05 | 78 | 1012.8 |
| 20260503170224 | 52 | 163 | 5.2 | 13.9 | 0.02 | 0.04 | 0.04 | 80 | 1014.4 |
| 20260503150223 | 55 | 222 | 12.2 | 26.1 | 0.00 | 0.00 | 0.00 | 58 | 1015.2 |
| 20260503140223 | 54 | 217 | 7.0 | 22.6 | 0.00 | 0.00 | 0.00 | 61 | 1015.8 |
| 20260503110223 | 44 | 192 | 5.2 | 13.9 | 0.00 | 0.00 | 0.00 | 67 | 1015.8 |
| 20260503100222 | 44 | 221 | 6.1 | 10.4 | 0.00 | 0.00 | 0.00 | 67 | 1016.0 |
| 20260503090222 | 44 | 230 | 6.1 | 7.8 | 0.00 | 0.00 | 0.00 | 65 | 1016.4 |
| 20260503080222 | 45 | 225 | 6.1 | 11.3 | 0.00 | 0.00 | 0.00 | 62 | 1016.5 |
| 20260503070222 | 45 | 230 | 6.1 | 12.2 | 0.00 | 0.00 | 0.00 | 61 | 1016.6 |
| 20260503060222 | 45 | 217 | 7.0 | 10.4 | 0.00 | 0.00 | 0.00 | 60 | 1017.1 |
| 20260503053221 | 45 | 213 | 5.2 | 8.7 | 0.00 | 0.00 | 0.00 | 61 | 1017.2 |
| 20260503050222 | 46 | 211 | 3.5 | 7.8 | 0.00 | 0.00 | 0.00 | 60 | 1017.4 |
| 20260503043221 | 47 | 202 | 5.2 | 7.0 | 0.00 | 0.00 | 0.00 | 59 | 1017.5 |
| 20260503040221 | 47 | 190 | 3.5 | 7.0 | 0.00 | 0.00 | 0.00 | 58 | 1017.6 |
| 20260503033221 | 48 | 201 | 3.5 | 7.0 | 0.00 | 0.00 | 0.00 | 57 | 1017.6 |
| 20260503030221 | 48 | 200 | 4.3 | 7.0 | 0.00 | 0.00 | 0.00 | 57 | 1017.7 |
| 20260503023221 | 48 | 209 | 3.5 | 6.1 | 0.00 | 0.00 | 0.00 | 57 | 1017.6 |
| 20260503020221 | 50 | 191 | 1.7 | 3.5 | 0.00 | 0.00 | 0.00 | 54 | 1017.8 |
| 20260503013221 | 52 | 209 | 0.9 | 4.3 | 0.00 | 0.00 | 0.00 | 51 | 1017.6 |
| 20260503010221 | 54 | 226 | 0.9 | 3.5 | 0.00 | 0.00 | 0.00 | 48 | 1017.5 |
| 20260503003221 | 55 | 236 | 1.7 | 7.8 | 0.00 | 0.00 | 0.00 | 46 | 1017.5 |
| 20260503000221 | 55 | 269 | 3.5 | 4.3 | 0.00 | 0.00 | 0.00 | 44 | 1017.5 |
| 20260502233221 | 56 | 218 | 6.1 | 10.4 | 0.00 | 0.00 | 0.00 | 41 | 1017.5 |
| 20260502230221 | 55 | 250 | 5.2 | 10.4 | 0.00 | 0.00 | 0.00 | 45 | 1017.5 |